Retour au catalogue

STARLINK-30437

ActifCommunicationsVLEO
NORAD 58036·PAYLOAD·🇺🇸 United States

Lancé Oct 9, 2023 depuis Vandenberg Space Force Base

Loading…

Prochains Passages (prochaines 24 heures)

TLE

FraisSource: CelesTrak SupGP

Époque: Sep 15, 2026, 02:40 UTC

1 58036C 23156J   26258.11159722 -.00002676  00000+0 -86027-4 0  2587
2 58036  53.1574 277.9273 0001343  81.1178 353.8716 15.31710692    12

Suivez STARLINK-30437 en temps réel avec AllMySat

Download on the App Store